01.05.2024;22:00;90
01.05.2024;21:00;93
01.05.2024;20:00;95
01.05.2024;19:00;96
01.05.2024;18:00;94
01.05.2024;17:00;93
01.05.2024;16:00;96
01.05.2024;15:00;98
01.05.2024;14:00;99
01.05.2024;13:00;103
01.05.2024;12:00;102
01.05.2024;11:00;93
01.05.2024;10:00;94
01.05.2024;09:00;94
01.05.2024;08:00;95
01.05.2024;07:00;98
01.05.2024;06:00;98
01.05.2024;05:00;99
01.05.2024;04:00;102
01.05.2024;03:00;103
01.05.2024;02:00;103
01.05.2024;01:00;103
01.05.2024;00:00;105
30.04.2024;23:00;104
30.04.2024;22:00;106
30.04.2024;21:00;111
30.04.2024;20:00;113
30.04.2024;19:00;111
30.04.2024;18:00;111
30.04.2024;17:00;113
30.04.2024;16:00;109
30.04.2024;15:00;109
30.04.2024;14:00;110
30.04.2024;13:00;107
30.04.2024;12:00;102
30.04.2024;11:00;97
30.04.2024;10:00;99
30.04.2024;09:00;99
30.04.2024;08:00;95
30.04.2024;07:00;99
30.04.2024;06:00;97
30.04.2024;05:00;99
30.04.2024;04:00;98
30.04.2024;03:00;101
30.04.2024;02:00;105
30.04.2024;01:00;104
30.04.2024;00:00;107
29.04.2024;23:00;108
